Terminal Aerodrome Forecast
Issued by NWS Shreveport, LA

Home | Current Version | Previous Version | Text Only | Print | Product List | Glossary On
Versions: 1 2 3 4 5 6 7 8 9 10 11 12 13 14 15 16 17 18 19 20 21 22 23 24 25 26 27 28 29 30 31
000
FTUS44 KSHV 291800 AAA
TAFMLU
TAF AMD
KMLU 291800Z 2918/3018 30010KT P6SM VCTS BKN025CB
      TEMPO 2918/2919 2SM TSRA BR OVC020CB
     FM300100 16008KT P6SM VCTS BKN035CB
     FM300700 16011KT P6SM -TSRA OVC015CB=

USA.gov is the U.S. government's official web portal to all federal, state and local government web resources and services.